DLH5CW EDDP-EDDF

Flight info

Callsign DLH5CW
Flight time 0h 42m
Altitude 22000
Route ORTAG1X ORTAG T177 ODIPI/N0402F210 T157 KERAX KERAX5D
Aircraft A320/M-SDE3FGHIRWY/LB1

Departure

Time 2026-05-07 20:42
Airport Leipzig/Halle Airport (EDDP)

Arrival

Time 2026-05-07 21:24
Airport Frankfurt Main Airport (EDDF)
Time Latitude Longitude Altitude Speed Heading
2026-05-07 20:17 51.42015 12.21299 425 ft 0 kts 15°
2026-05-07 20:38 51.42034 12.21307 432 ft 9 kts 15°
2026-05-07 20:38 51.42093 12.21328 432 ft 7 kts 354°
2026-05-07 20:39 51.42120 12.21229 430 ft 13 kts 277°
2026-05-07 20:39 51.42142 12.21083 422 ft 14 kts 284°
2026-05-07 20:39 51.42205 12.20988 424 ft 16 kts
2026-05-07 20:39 51.42346 12.21048 434 ft 22 kts 15°
2026-05-07 20:40 51.42493 12.21112 436 ft 21 kts 15°
2026-05-07 20:40 51.42627 12.21172 436 ft 19 kts 16°
2026-05-07 20:40 51.42759 12.21230 435 ft 20 kts 15°
2026-05-07 20:40 51.42879 12.21285 435 ft 17 kts 21°
2026-05-07 20:41 51.42981 12.21431 425 ft 21 kts 45°
2026-05-07 20:41 51.43092 12.21609 429 ft 23 kts 46°
2026-05-07 20:41 51.43138 12.21863 433 ft 30 kts 85°
2026-05-07 20:41 51.43172 12.22579 433 ft 99 kts 85°
2026-05-07 20:42 51.43238 12.23986 432 ft 152 kts 85°
2026-05-07 20:42 51.43315 12.25797 882 ft 164 kts 85°
2026-05-07 20:42 51.43433 12.27617 1638 ft 164 kts 72°
2026-05-07 20:42 51.43920 12.29352 2115 ft 180 kts 58°
2026-05-07 20:43 51.44746 12.30983 2534 ft 198 kts 43°
2026-05-07 20:43 51.45926 12.32271 3118 ft 210 kts 25°
2026-05-07 20:43 51.47355 12.32915 3907 ft 217 kts
2026-05-07 20:43 51.48862 12.32835 4808 ft 218 kts 349°
2026-05-07 20:44 51.49831 12.32357 5320 ft 224 kts 338°
2026-05-07 20:44 51.51142 12.30992 6137 ft 228 kts 318°
2026-05-07 20:44 51.52138 12.28966 6898 ft 235 kts 302°
2026-05-07 20:44 51.53510 12.26301 7917 ft 236 kts 322°
2026-05-07 20:45 51.54861 12.24823 8744 ft 235 kts 330°
2026-05-07 20:45 51.55809 12.23891 9259 ft 238 kts 331°
2026-05-07 20:45 51.57242 12.22509 10045 ft 242 kts 331°
2026-05-07 20:45 51.58695 12.21119 10748 ft 245 kts 331°
2026-05-07 20:46 51.60163 12.19699 11522 ft 246 kts 330°
2026-05-07 20:46 51.61642 12.18247 12140 ft 257 kts 330°
2026-05-07 20:46 51.63213 12.16688 12417 ft 281 kts 329°
2026-05-07 20:46 51.64942 12.14956 12652 ft 304 kts 329°
2026-05-07 20:47 51.66807 12.13071 12874 ft 328 kts 329°
2026-05-07 20:47 51.68732 12.10882 13022 ft 353 kts 317°
2026-05-07 20:47 51.70149 12.07553 13363 ft 371 kts 293°
2026-05-07 20:47 51.70640 12.03442 13982 ft 380 kts 270°
2026-05-07 20:48 51.70495 11.99166 14620 ft 383 kts 267°
2026-05-07 20:48 51.70294 11.94876 15291 ft 385 kts 266°
2026-05-07 20:48 51.70070 11.90558 15967 ft 387 kts 266°
2026-05-07 20:48 51.69840 11.86220 16633 ft 389 kts 265°
2026-05-07 20:49 51.69608 11.81872 17283 ft 391 kts 265°
2026-05-07 20:49 51.69378 11.77490 17922 ft 393 kts 265°
2026-05-07 20:49 51.69153 11.73095 18508 ft 395 kts 266°
2026-05-07 20:49 51.68928 11.68655 19038 ft 398 kts 266°
2026-05-07 20:50 51.68703 11.64211 19600 ft 399 kts 265°
2026-05-07 20:50 51.68476 11.59753 20150 ft 401 kts 265°
2026-05-07 20:50 51.68245 11.55265 20676 ft 403 kts 265°
2026-05-07 20:50 51.68012 11.50761 21179 ft 405 kts 265°
2026-05-07 20:51 51.67774 11.46224 21677 ft 407 kts 265°
2026-05-07 20:51 51.67531 11.41663 22048 ft 409 kts 265°
2026-05-07 20:51 51.67188 11.37146 22129 ft 417 kts 259°
2026-05-07 20:51 51.66374 11.32590 22133 ft 430 kts 249°
2026-05-07 20:52 51.65042 11.28258 22128 ft 434 kts 239°
2026-05-07 20:52 51.63218 11.24365 22121 ft 437 kts 228°
2026-05-07 20:52 51.60966 11.21086 22125 ft 438 kts 217°
2026-05-07 20:52 51.58436 11.18341 22124 ft 439 kts 214°
2026-05-07 20:53 51.55877 11.15628 22122 ft 439 kts 214°
2026-05-07 20:53 51.53330 11.12929 22121 ft 439 kts 214°
2026-05-07 20:53 51.50850 11.10078 22116 ft 438 kts 221°
2026-05-07 20:53 51.48681 11.06676 22125 ft 436 kts 230°
2026-05-07 20:54 51.46881 11.02782 22120 ft 434 kts 239°
2026-05-07 20:54 51.45398 10.98566 22116 ft 434 kts 242°
2026-05-07 20:54 51.43936 10.94336 22113 ft 434 kts 242°
2026-05-07 20:54 51.42466 10.90117 22115 ft 434 kts 242°
2026-05-07 20:55 51.41009 10.85957 22115 ft 434 kts 241°
2026-05-07 20:55 51.39530 10.81750 22112 ft 433 kts 241°
2026-05-07 20:55 51.38050 10.77550 22111 ft 433 kts 241°
2026-05-07 20:55 51.36572 10.73350 22113 ft 433 kts 241°
2026-05-07 20:56 51.35092 10.69150 22113 ft 433 kts 241°
2026-05-07 20:56 51.33613 10.64955 22116 ft 433 kts 241°
2026-05-07 20:56 51.32137 10.60764 22107 ft 433 kts 241°
2026-05-07 20:56 51.30656 10.56568 22110 ft 433 kts 241°
2026-05-07 20:57 51.29173 10.52378 22102 ft 433 kts 241°
2026-05-07 20:57 51.27672 10.48211 22104 ft 433 kts 238°
2026-05-07 20:57 51.25894 10.44318 22103 ft 434 kts 232°
2026-05-07 20:57 51.23999 10.40566 22102 ft 435 kts 232°
2026-05-07 20:58 51.22103 10.36809 22100 ft 435 kts 232°
2026-05-07 20:58 51.20147 10.33128 22106 ft 436 kts 225°
2026-05-07 20:58 51.17782 10.30112 22102 ft 437 kts 217°
2026-05-07 20:58 51.15315 10.27267 22104 ft 437 kts 217°
2026-05-07 20:59 51.12850 10.24438 22105 ft 437 kts 217°
2026-05-07 20:59 51.10383 10.21610 22102 ft 437 kts 217°
2026-05-07 20:59 51.07915 10.18784 22100 ft 437 kts 217°
2026-05-07 20:59 51.05443 10.15956 22103 ft 438 kts 217°
2026-05-07 21:00 51.02972 10.13129 22108 ft 438 kts 217°
2026-05-07 21:00 51.00504 10.10305 22021 ft 436 kts 217°
2026-05-07 21:00 50.98052 10.07498 21750 ft 433 kts 217°
2026-05-07 21:00 50.95609 10.04708 21484 ft 432 kts 217°
2026-05-07 21:01 50.93178 10.01934 21233 ft 430 kts 217°
2026-05-07 21:01 50.90750 9.99176 20981 ft 429 kts 217°
2026-05-07 21:01 50.88328 9.96436 20713 ft 427 kts 217°
2026-05-07 21:01 50.85911 9.93708 20458 ft 426 kts 217°
2026-05-07 21:02 50.83500 9.90983 20210 ft 425 kts 217°
2026-05-07 21:02 50.81103 9.88267 19957 ft 423 kts 217°
2026-05-07 21:02 50.78720 9.85571 19709 ft 420 kts 217°
2026-05-07 21:02 50.76338 9.82884 19456 ft 419 kts 217°
2026-05-07 21:03 50.74003 9.80254 19233 ft 417 kts 217°
2026-05-07 21:03 50.71644 9.77601 18988 ft 416 kts 217°
2026-05-07 21:03 50.69258 9.74924 18742 ft 415 kts 217°
2026-05-07 21:03 50.66943 9.72326 18510 ft 413 kts 217°
2026-05-07 21:04 50.64574 9.69665 18249 ft 412 kts 217°
2026-05-07 21:04 50.62148 9.67264 17974 ft 412 kts 208°
2026-05-07 21:04 50.59546 9.65543 17709 ft 411 kts 202°
2026-05-07 21:04 50.56880 9.63929 17441 ft 410 kts 202°
2026-05-07 21:05 50.54228 9.62313 17174 ft 408 kts 202°
2026-05-07 21:05 50.51623 9.60579 16904 ft 405 kts 209°
2026-05-07 21:05 50.49323 9.58073 16647 ft 402 kts 223°
2026-05-07 21:05 50.47483 9.54817 16381 ft 398 kts 236°
2026-05-07 21:06 50.46188 9.50999 16118 ft 395 kts 250°
2026-05-07 21:06 50.45374 9.46897 15872 ft 394 kts 254°
2026-05-07 21:06 50.44599 9.42783 15617 ft 388 kts 254°
2026-05-07 21:06 50.43836 9.38785 15366 ft 379 kts 253°
2026-05-07 21:07 50.43078 9.34820 15117 ft 380 kts 253°
2026-05-07 21:07 50.42324 9.30862 14875 ft 379 kts 253°
2026-05-07 21:07 50.41384 9.27015 14626 ft 378 kts 241°
2026-05-07 21:07 50.39766 9.23793 14382 ft 378 kts 223°
2026-05-07 21:08 50.37617 9.21434 14133 ft 378 kts 212°
2026-05-07 21:08 50.35375 9.19269 13894 ft 377 kts 213°
2026-05-07 21:08 50.33142 9.17112 13629 ft 376 kts 213°
2026-05-07 21:08 50.30922 9.14963 13358 ft 375 kts 213°
2026-05-07 21:09 50.28734 9.12768 13081 ft 373 kts 218°
2026-05-07 21:09 50.26986 9.09829 12816 ft 365 kts 238°
2026-05-07 21:09 50.25957 9.06313 12655 ft 349 kts 250°
2026-05-07 21:09 50.25142 9.02819 12525 ft 334 kts 250°
2026-05-07 21:10 50.24361 8.99472 12398 ft 322 kts 250°
2026-05-07 21:10 50.23611 8.96252 12265 ft 310 kts 250°
2026-05-07 21:10 50.22884 8.93144 12149 ft 299 kts 250°
2026-05-07 21:10 50.22186 8.90175 11951 ft 291 kts 250°
2026-05-07 21:11 50.21493 8.87230 11662 ft 288 kts 250°
2026-05-07 21:11 50.20801 8.84295 11315 ft 287 kts 250°
2026-05-07 21:11 50.19418 8.78472 10607 ft 285 kts 250°
2026-05-07 21:12 50.18728 8.75570 10255 ft 285 kts 250°
2026-05-07 21:12 50.18043 8.72680 9876 ft 284 kts 250°
2026-05-07 21:12 50.17361 8.69802 9500 ft 282 kts 250°
2026-05-07 21:12 50.16682 8.66935 9129 ft 281 kts 250°
2026-05-07 21:13 50.16009 8.64089 8748 ft 279 kts 250°
2026-05-07 21:13 50.15340 8.61260 8368 ft 277 kts 250°
2026-05-07 21:13 50.14678 8.58460 7997 ft 275 kts 250°
2026-05-07 21:13 50.14015 8.55670 7628 ft 273 kts 250°
2026-05-07 21:14 50.13356 8.52907 7259 ft 271 kts 250°
2026-05-07 21:14 50.12697 8.50167 6987 ft 270 kts 250°
2026-05-07 21:14 50.12040 8.47435 6740 ft 269 kts 250°
2026-05-07 21:14 50.11387 8.44712 6493 ft 268 kts 250°
2026-05-07 21:15 50.10737 8.42002 6209 ft 267 kts 250°
2026-05-07 21:15 50.10083 8.39302 5957 ft 266 kts 250°
2026-05-07 21:15 50.09429 8.36604 5688 ft 266 kts 250°
2026-05-07 21:15 50.08775 8.33911 5426 ft 266 kts 250°
2026-05-07 21:16 50.08120 8.31218 5170 ft 265 kts 250°
2026-05-07 21:16 50.07468 8.28533 5028 ft 266 kts 250°
2026-05-07 21:16 50.06815 8.25849 5007 ft 266 kts 250°
2026-05-07 21:16 50.06161 8.23155 5017 ft 266 kts 250°
2026-05-07 21:17 50.05505 8.20457 5015 ft 267 kts 250°
2026-05-07 21:17 50.04847 8.17756 5021 ft 267 kts 250°
2026-05-07 21:17 50.04188 8.15052 5016 ft 267 kts 250°
2026-05-07 21:17 50.03338 8.12587 5014 ft 256 kts 231°
2026-05-07 21:18 50.02025 8.10889 5014 ft 241 kts 208°
2026-05-07 21:18 50.00446 8.10128 5022 ft 239 kts 185°
2026-05-07 21:18 49.98806 8.10377 5022 ft 238 kts 161°
2026-05-07 21:18 49.97365 8.11606 5019 ft 238 kts 138°
2026-05-07 21:19 49.96354 8.13616 5021 ft 237 kts 114°
2026-05-07 21:19 49.95939 8.16065 5011 ft 236 kts 91°
2026-05-07 21:19 49.96171 8.18554 4797 ft 232 kts 69°
2026-05-07 21:19 49.96728 8.20855 4495 ft 223 kts 68°
2026-05-07 21:20 49.97271 8.23058 4183 ft 214 kts 68°
2026-05-07 21:20 49.97792 8.25193 3878 ft 209 kts 68°
2026-05-07 21:20 49.98297 8.27277 3587 ft 203 kts 68°
2026-05-07 21:20 49.98786 8.29294 3315 ft 196 kts 68°
2026-05-07 21:21 49.99260 8.31255 3000 ft 192 kts 69°
2026-05-07 21:21 49.99724 8.33171 2735 ft 187 kts 69°
2026-05-07 21:21 50.00174 8.35036 2471 ft 181 kts 69°
2026-05-07 21:21 50.00606 8.36826 2207 ft 172 kts 69°
2026-05-07 21:22 50.01011 8.38502 1973 ft 157 kts 69°
2026-05-07 21:22 50.01374 8.40013 1742 ft 142 kts 69°
2026-05-07 21:22 50.01711 8.41415 1499 ft 136 kts 69°
2026-05-07 21:22 50.02038 8.42782 1306 ft 134 kts 69°
2026-05-07 21:23 50.02366 8.44141 1130 ft 134 kts 69°
2026-05-07 21:23 50.02694 8.45499 950 ft 134 kts 68°
2026-05-07 21:23 50.03022 8.46857 762 ft 134 kts 68°
2026-05-07 21:23 50.03343 8.48213 575 ft 134 kts 67°
2026-05-07 21:24 50.03670 8.49563 390 ft 133 kts 67°
2026-05-07 21:24 50.03980 8.50853 326 ft 112 kts 70°
2026-05-07 21:24 50.04191 8.51734 333 ft 62 kts 70°
2026-05-07 21:24 50.04320 8.52273 350 ft 46 kts 70°
2026-05-07 21:25 50.04392 8.52637 346 ft 30 kts 83°
2026-05-07 21:25 50.04378 8.52946 353 ft 27 kts 99°
2026-05-07 21:25 50.04351 8.53199 360 ft 19 kts 98°
2026-05-07 21:25 50.04368 8.53374 371 ft 15 kts 70°
2026-05-07 21:26 50.04397 8.53532 375 ft 18 kts 83°
2026-05-07 21:26 50.04411 8.53751 375 ft 22 kts 83°
2026-05-07 21:26 50.04425 8.53965 375 ft 20 kts 84°
2026-05-07 21:26 50.04440 8.54190 375 ft 21 kts 85°
2026-05-07 21:27 50.04454 8.54398 372 ft 18 kts 86°
2026-05-07 21:27 50.04428 8.54593 365 ft 17 kts 115°
2026-05-07 21:27 50.04348 8.54738 359 ft 18 kts 144°
2026-05-07 21:27 50.04236 8.54815 358 ft 19 kts 162°
2026-05-07 21:28 50.04122 8.54879 357 ft 12 kts 159°
2026-05-07 21:28 50.04043 8.54925 356 ft 11 kts 158°
2026-05-07 21:28 50.04018 8.55017 356 ft 12 kts 73°
2026-05-07 21:28 50.04055 8.55169 358 ft 17 kts 69°
2026-05-07 21:29 50.04098 8.55348 357 ft 19 kts 69°
2026-05-07 21:29 50.04144 8.55544 358 ft 19 kts 69°
2026-05-07 21:29 50.04188 8.55728 356 ft 17 kts 70°
2026-05-07 21:29 50.04230 8.55903 359 ft 17 kts 70°
2026-05-07 21:30 50.04263 8.56037 361 ft 9 kts 65°
2026-05-07 21:30 50.04319 8.56069 362 ft 10 kts 344°
2026-05-07 21:30 50.04386 8.56031 362 ft 10 kts 341°
2026-05-07 21:30 50.04442 8.56072 358 ft 11 kts 64°
2026-05-07 21:31 50.04471 8.56195 363 ft 13 kts 70°
2026-05-07 21:31 50.04492 8.56283 359 ft 5 kts 70°
2026-05-07 21:31 50.04478 8.56312 358 ft 4 kts 162°
2026-05-07 21:31 50.04447 8.56323 363 ft 4 kts 167°
2026-05-07 21:32 50.04433 8.56328 358 ft 1 kts 166°
2026-05-07 21:32 50.04431 8.56329 357 ft 0 kts 166°